Location: Peterborough
(44.3091°N, 78.3197°W)
Time: 03:46:23
(UTC-04:00)

S-56A Canister/Altair - Pass Details

Date: 22 March 2023
Orbit: 639 x 2492 km, 38.9° (Epoch: 08 June)

Event Time Altitude Azimuth Distance (km) Brightness Sun altitude
Rises 19:25:31 0° 208° (SSW) 4,941 12.1 -0.4°
Reaches altitude 10° 19:28:51 10° 200° (SSW) 4,199 11.5 -1.0°
Maximum altitude 19:39:07 35° 140° (SE) 3,200 10.4 -2.8°
Drops below altitude 10° 19:51:38 10° 83° (E) 5,145 11.1 -5.0°
Enters shadow 19:54:52 - 77° (ENE) 5,868 11.4 -5.6°
Sets 19:56:11 0° 76° (ENE) 6,167 - -5.9°
